GRUS-1D

导读

GRUS-1D是由日本发射的人造卫星,于2021年3月22日08:00升空。它属于GRUS系列卫星,该系列卫星主要服务于对地观测领域,GRUS-1D承续系列任务目标,依托自身遥感设备获取地球观测数据,为相关领域科研、环境监测等应用提供信息支持,推进日本对地观测卫星网络的布局与数据积累。

Basic Information
目录编号:
47936
目录名称:
GRUS-1D
国际标识:
2021-022E
轨道中心:
EARTH
卫星名称:
GRUS-1D
卫星全名:
--
卫星状态:
在轨 (已飞行1992 天)
发射日期:
2021-03-22 UTC
国别 :
日本 (JP)
星等 :
--
Orbit Information
数据来源 国际轨道数据
星历时间: 2026-09-04T15:32:49+0800
11小时前
查看轨道信息
半长轴: 6948.594km
偏心率: 0.0013081
轨道倾角: 97.526°
近地点辐角 42.844°
升交点赤经 128.041°
平近点角 317.380°
近地点: 561.367km
远地点: 579.547km
周期: 96.074分钟
每日圈数: 14.988472
Detailed Information
使用方式:
暂无
2D Orbit Map
3D Orbit Map
Orbit Altitude Analysis Chart
Orbit Inclination Analysis Chart
Orbit Comprehensive Analysis Chart
View Comprehensive Chart
Conjunction Data List
Event ID Objects TCA Miss Dist (km) Collision Risk Probability Collision Risk Index (CRI) Action
CDM_260906-023304-793605-593622
GRUS-1D (47936)
2026-09-06T
02:33:59+0000
1.752 km
极远距离
2.331601E-6 低风险 0.42
CDM_260903-035304-793606-145826
GRUS-1D (47936)
2026-09-03T
03:53:26+0000
2.344 km
极远距离
1.865824E-6 低风险 0.4
CDM_260906-041004-793605-593621
GRUS-1D (47936)
2026-09-06T
04:10:09+0000
1.942 km
极远距离
1.772869E-6 低风险 0.4
CDM_260905-155404-793606-161422
GRUS-1D (47936)
2026-09-05T
15:54:32+0000
2.940 km
极远距离
1.329091E-6 低风险 0.37